CAPE
2537 2565 2689 3002 2935 2930 2009 1969 1573 188 10 0 193 353 325 219 292 122 23 17 10 0 0 0 0 0 0 0 0 1 8 14 28 15 6 0 0 0 0 0 0 16 26
2549 3055 3017 2837 2757 2896 1639 1825 777 174 54 80 103 339 340 271 179 23 18 11 0 0 0 0 0 0 0 3 3 8 8 13 34 5 0 0 0 0 0 1 0 0 35
2693 2591 2839 3324 2328 2486 1849 1608 693 641 233 150 119 380 163 373 21 15 13 13 0 0 0 0 0 0 4 7 15 12 20 58 37 0 0 0 8 0 19 8 14 4 1
2608 2741 3090 2919 2370 2038 1964 1327 1204 799 522 459 356 40 356 263 19 23 33 21 2 0 0 0 0 1 13 13 31 31 50 48 0 1 8 1 9 5 16 11 3 9 3
2880 3045 3336 2730 2321 2008 2049 1303 1261 865 609 499 94 297 287 13 2 33 40 6 0 0 0 0 0 1 4 15 26 33 37 0 0 0 1 0 18 21 7 29 0 9 0
3120 2924 2779 2556 2115 2318 2182 1726 1033 908 682 186 221 240 91 0 0 0 1 0 0 0 0 0 1 0 1 5 0 0 0 3 0 7 0 4 1 4 14 8 6 14 0
2912 2737 2305 2164 2386 2481 2203 1397 1041 678 262 86 228 337 158 18 0 0 0 0 0 0 0 0 7 0 7 0 0 0 0 3 5 15 0 1 0 8 21 3 9 12 0
2464 2030 2125 2301 2473 2413 1677 1176 677 352 208 139 362 471 171 101 0 1 0 0 0 0 0 1 8 4 7 0 0 0 0 0 3 3 12 1 36 0 12 4 1 9 1
2038 1919 2142 2365 2404 2167 1663 781 521 372 128 352 638 553 374 215 1 5 1 0 0 0 0 1 0 1 0 0 0 1 0 0 0 3 8 30 51 40 45 5 0 4 9
1744 1668 1605 1892 2207 2108 1251 806 619 183 323 429 517 289 65 400 17 11 0 0 0 0 0 0 0 0 0 0 0 2 0 0 1 0 35 16 17 30 16 11 10 9 14
1192 1128 1146 1472 2038 1536 919 687 492 284 464 631 381 411 304 87 1 5 0 0 0 0 0 0 0 0 0 0 0 1 11 2 0 17 6 38 17 7 22 21 10 38 42
992 1040 1363 1593 1712 1253 789 717 380 418 731 758 682 279 29 43 10 9 8 0 0 0 0 0 0 0 0 0 0 0 6 8 10 1 0 6 18 12 40 40 13 15 34
932 1169 1284 1749 1729 1136 904 679 235 486 423 635 586 489 129 53 31 11 10 2 0 0 0 0 0 0 0 0 0 0 0 1 1 0 0 0 0 3 36 7 33 39 120
1135 1021 1235 1448 1627 1219 868 551 219 320 678 1019 377 437 98 4 13 8 0 1 0 0 0 0 0 0 0 0 0 0 0 0 0 2 0 0 0 5 12 8 34 78 43
1494 1257 1189 1118 1144 895 503 314 193 195 296 199 44 107 24 0 0 0 3 0 0 0 0 0 0 0 0 0 0 0 0 0 0 0 0 0 1 0 0 4 10 7 0
890 1211 1195 696 958 531 425 137 81 112 118 43 30 9 1 5 3 7 0 0 0 0 0 0 0 0 0 0 0 0 0 0 0 0 0 0 0 0 0 0 2 0 0
456 400 510 618 636 460 231 90 143 121 38 34 0 15 17 4 0 1 0 0 0 0 0 0 0 0 0 0 0 0 0 0 0 0 0 0 0 0 0 0 0 0 0
108 117 20 6 0 21 19 34 70 62 37 5 0 6 9 0 1 0 0 0 0 0 0 0 0 0 0 0 0 0 0 0 0 0 0 0 0 0 0 0 0 0 0
147 80 22 1 2 8 29 48 45 34 11 0 10 2 9 14 8 6 0 0 0 0 0 0 0 0 0 0 0 0 0 0 0 0 0 0 0 0 0 0 0 0 0
9 26 37 75 22 26 58 73 36 39 4 14 18 22 25 18 8 9 0 0 0 0 0 0 0 0 0 0 0 0 0 0 0 0 0 0 0 0 0 0 0 0 0
62 75 6 74 173 115 155 85 42 58 23 29 38 33 25 10 12 4 0 0 0 0 0 0 0 0 0 0 0 0 0 0 0 0 0 0 0 0 0 0 0 0 0
12 13 52 111 56 61 115 87 30 29 18 30 30 30 5 16 8 2 0 0 0 0 0 0 0 0 0 0 0 0 0 0 0 0 0 0 0 0 0 0 0 0 0
0 0 2 12 15 0 63 46 22 14 25 38 42 25 21 18 6 0 0 0 0 0 0 0 0 0 0 0 0 0 0 0 0 0 0 0 0 0 0 0 0 0 0
0 3 1 2 4 38 89 114 46 15 28 19 10 5 1 16 0 0 0 0 0 0 0 0 0 0 0 0 0 0 0 0 0 0 0 0 0 0 0 0 0 0 0
0 2 34 104 53 47 56 215 64 21 28 35 3 2 0 0 0 0 0 0 0 0 0 0 0 0 0 0 0 0 0 0 0 0 0 0 0 0 0 0 0 0 0
8 9 12 9 24 56 86 69 27 33 23 14 0 1 0 0 0 0 0 0 0 0 0 0 0 0 0 0 0 0 0 0 0 0 0 0 0 0 0 0 0 0 0
CIN
-290 -244 -203 -140 -106 -36 -84 -45 -40 -149 -43 0 -95 -97 -76 -82 -57 -74 -86 -124 -147 -19 0 0 0 0 0 0 0 0 0 0 0 0 -1 0 0 0 0 0 0 0 0
-309 -206 -197 -147 -86 -54 -95 -57 -79 -35 -90 -264 -160 -75 -36 -64 -37 -153 -26 -183 -94 0 0 0 0 0 0 0 0 0 0 0 0 0 0 0 0 0 0 -6 0 0 0
-254 -244 -172 -99 -145 -70 -101 -50 -261 -160 -41 -39 -26 -49 -119 -1 -74 -63 -118 -113 -31 0 0 0 0 0 0 0 0 0 0 0 -1 0 0 -3 -155 0 -9 -6 0 0 0
-275 -212 -124 -129 -158 -161 -101 -46 -104 -14 -16 -4 -53 -169 -12 -3 -58 -79 -95 -97 -46 0 0 0 0 0 0 0 -3 0 0 -1 0 0 -1 -5 -7 -5 -87 -7 -12 0 0
-242 -170 -106 -146 -159 -142 -72 -52 -39 -21 -53 0 -37 -26 0 -51 -23 -69 -78 -167 0 -5 0 0 0 0 0 0 0 0 -2 0 0 -2 -13 -3 -1 -2 -9 0 0 0 0
-226 -208 -175 -165 -175 -111 -52 -70 -38 -10 -1 -43 -69 -5 -15 -2 0 0 -198 0 0 0 0 0 0 0 0 0 0 0 0 0 0 0 -1 0 -2 0 -3 -1 -3 -2 0
-240 -222 -231 -188 -127 -73 -45 -69 -19 -12 -24 -132 -22 -3 -4 -55 0 0 0 0 0 0 0 0 0 0 0 0 0 0 0 0 -1 0 0 0 0 -13 -1 -2 -2 0 0
-257 -245 -182 -125 -81 -44 -67 -37 -8 -18 -49 -64 -1 0 -18 -20 0 -61 -7 0 0 0 0 0 0 0 0 0 0 0 0 -1 -1 -1 0 -5 0 0 -2 -11 -1 -2 -1
-262 -220 -150 -91 -47 -37 -35 -13 -5 -8 -75 -16 0 -2 -4 -9 -31 -85 -45 0 0 0 0 0 0 0 0 0 0 -5 0 0 0 0 0 0 0 0 -1 -34 0 -1 0
-261 -251 -183 -95 -17 -6 -5 -4 -2 -64 -42 -7 -2 -15 -62 -3 -66 -48 0 0 0 0 0 0 0 0 0 0 0 -22 0 0 -1 0 -1 -8 0 0 0 -1 0 -1 -28
-341 -295 -177 -94 -15 -14 -12 -14 -14 -68 -19 -1 -7 -9 -20 -51 -38 -33 -2 0 0 0 0 0 0 0 0 0 0 -12 -24 -1 0 0 -1 0 -11 -2 0 -4 -1 -4 -2
-295 -140 -95 -37 -17 -20 -12 -9 -19 -33 -3 -1 -1 -17 -57 -20 -26 -29 -15 0 0 0 0 0 0 0 0 0 0 0 -129 -61 -26 -2 0 -5 0 -4 0 0 -5 -1 -1
-246 -105 -48 -20 -9 -10 -3 -6 -46 -17 -14 0 -2 -7 -26 -22 -22 -22 -10 -2 0 0 0 0 0 0 0 0 0 0 0 -90 -53 -12 0 0 0 0 -1 -6 0 -4 -1
-211 -160 -53 -18 -7 -4 -2 -2 -30 -22 -8 -1 -10 -9 -22 -34 -28 -11 0 -2 0 0 0 0 0 0 0 0 0 0 0 0 0 -64 0 -1 0 0 0 0 -2 -1 -2
-102 -84 -38 -10 -10 0 -6 -7 -18 -23 -11 -19 -17 -32 -13 -2 0 0 -3 0 0 0 0 0 0 0 0 0 0 0 0 0 0 0 -11 0 -11 0 0 0 0 0 0
-166 -25 -3 -19 0 -2 0 -7 -6 0 0 0 -6 -8 -3 -6 -3 -3 0 0 0 0 0 0 0 0 0 0 0 0 0 0 0 0 0 0 0 0 0 0 0 0 0
-190 -99 -16 -11 -1 -1 -7 -24 -17 -6 -5 -6 -1 -20 -14 -13 0 -2 0 0 0 0 0 0 0 0 0 0 0 0 0 0 0 0 0 0 0 0 0 0 0 0 0
-204 -133 -119 0 0 -22 -19 -2 0 -1 -5 -5 0 -24 -18 -1 -1 0 0 0 0 0 0 0 0 0 0 0 0 0 0 0 0 0 0 0 0 0 0 0 0 0 0
-81 -72 -32 -1 -5 -13 -7 -1 -1 -3 -3 0 -12 -18 -10 -3 0 -1 0 0 0 0 0 0 0 0 0 0 0 0 0 0 0 0 0 0 0 0 0 0 0 0 0
-25 -12 -13 -2 -16 -12 -3 0 -4 -8 -8 -28 -11 -7 -4 0 -1 0 0 0 0 0 0 0 0 0 0 0 0 0 0 0 0 0 0 0 0 0 0 0 0 0 0
-5 -6 -11 -2 -11 -2 -2 -5 -23 -30 -33 -22 -11 -6 0 0 0 0 0 0 0 0 0 0 0 0 0 0 0 0 0 0 0 0 0 0 0 0 0 0 0 0 0
-27 -25 -26 -3 -12 -10 -8 -24 -49 -58 -36 -28 -11 -3 -1 0 0 -2 0 0 0 0 0 0 0 0 0 0 0 0 0 0 0 0 0 0 0 0 0 0 0 0 0
0 0 0 -10 -2 0 -18 -42 -59 -75 -29 -14 -3 0 0 0 0 0 0 0 0 0 0 0 0 0 0 0 0 0 0 0 0 0 0 0 0 0 0 0 0 0 0
-1 -3 0 0 -4 -5 -9 -14 -32 -32 -20 -8 -1 -1 0 -1 -3 0 0 0 0 0 0 0 0 0 0 0 0 0 0 0 0 0 0 0 0 0 0 0 0 0 0
0 -5 -7 -2 -5 -5 -16 0 -24 0 -17 -17 0 -12 -3 0 0 0 0 0 0 0 0 0 0 0 0 0 0 0 0 0 0 0 0 0 0 0 0 0 0 0 0
-1 -4 -2 -2 -1 -1 -10 -13 -32 -19 -4 0 0 0 0 0 0 0 0 0 0 0 0 0 0 0 0 0 0 0 0 0 0 0 0 0 0 0 0 0 0 0 0
Wind_Speed
26 27 30 32 38 34 44 43 43 38 nan nan 36 36 40 44 46 47 nan nan nan nan nan nan nan nan nan nan nan nan nan nan nan nan nan nan nan nan nan nan nan nan nan
24 27 32 34 50 42 46 44 44 36 nan nan 41 40 43 45 48 nan nan nan nan nan nan nan nan nan nan nan nan nan nan nan nan nan nan nan nan nan nan nan nan nan nan
25 30 33 37 42 38 44 43 50 46 43 45 46 44 45 48 nan nan nan nan nan nan nan nan nan nan nan nan nan nan nan nan nan nan nan nan nan nan nan nan nan nan nan
26 30 35 38 40 42 45 41 51 51 51 50 50 nan 52 53 nan nan nan nan nan nan nan nan nan nan nan nan nan nan nan nan nan nan nan nan nan nan nan nan nan nan nan
25 29 34 41 39 43 49 49 51 53 53 53 nan 52 55 nan nan nan nan nan nan nan nan nan nan nan nan nan nan nan nan nan nan nan nan nan nan nan nan nan nan nan nan
30 29 35 40 40 43 49 52 55 57 55 54 53 54 nan nan nan nan nan nan nan nan nan nan nan nan nan nan nan nan nan nan nan nan nan nan nan nan nan nan nan nan nan
35 33 39 43 45 46 52 53 57 60 59 nan 54 53 50 nan nan nan nan nan nan nan nan nan nan nan nan nan nan nan nan nan nan nan nan nan nan nan nan nan nan nan nan
37 36 39 44 48 52 54 58 58 61 59 55 53 52 50 49 nan nan nan nan nan nan nan nan nan nan nan nan nan nan nan nan nan nan nan nan nan nan nan nan nan nan nan
42 40 42 45 53 57 58 59 60 58 53 53 53 50 48 50 nan nan nan nan nan nan nan nan nan nan nan nan nan nan nan nan nan nan nan nan nan nan nan nan nan nan nan
50 50 53 50 53 55 56 54 51 50 49 48 50 48 nan 50 nan nan nan nan nan nan nan nan nan nan nan nan nan nan nan nan nan nan nan nan nan nan nan nan nan nan nan
57 56 52 52 51 53 51 50 48 47 49 48 50 50 50 nan nan nan nan nan nan nan nan nan nan nan nan nan nan nan nan nan nan nan nan nan nan nan nan nan nan nan nan
64 69 36 47 52 46 47 47 47 48 50 49 48 50 nan nan nan nan nan nan nan nan nan nan nan nan nan nan nan nan nan nan nan nan nan nan nan nan nan nan nan nan nan
71 53 39 43 47 48 50 48 46 48 46 46 47 48 49 nan nan nan nan nan nan nan nan nan nan nan nan nan nan nan nan nan nan nan nan nan nan nan nan nan nan nan 17
60 54 43 45 53 56 56 50 46 44 42 43 46 43 nan nan nan nan nan nan nan nan nan nan nan nan nan nan nan nan nan nan nan nan nan nan nan nan nan nan nan nan nan
48 48 49 54 57 57 49 42 41 41 37 42 nan 41 nan nan nan nan nan nan nan nan nan nan nan nan nan nan nan nan nan nan nan nan nan nan nan nan nan nan nan nan nan
49 48 47 52 47 45 43 43 nan 43 37 nan nan nan nan nan nan nan nan nan nan nan nan nan nan nan nan nan nan nan nan nan nan nan nan nan nan nan nan nan nan nan nan
45 47 49 45 45 46 44 nan 42 39 nan nan nan nan nan nan nan nan nan nan nan nan nan nan nan nan nan nan nan nan nan nan nan nan nan nan nan nan nan nan nan nan nan
46 43 nan nan nan nan nan nan nan nan nan nan nan nan nan nan nan nan nan nan nan nan nan nan nan nan nan nan nan nan nan nan nan nan nan nan nan nan nan nan nan nan nan
40 nan nan nan nan nan nan nan nan nan nan nan nan nan nan nan nan nan nan nan nan nan nan nan nan nan nan nan nan nan nan nan nan nan nan nan nan nan nan nan nan nan nan
nan nan nan nan nan nan nan nan nan nan nan nan nan nan nan nan nan nan nan nan nan nan nan nan nan nan nan nan nan nan nan nan nan nan nan nan nan nan nan nan nan nan nan
nan nan nan nan 34 33 33 nan nan nan nan nan nan nan nan nan nan nan nan nan nan nan nan nan nan nan nan nan nan nan nan nan nan nan nan nan nan nan nan nan nan nan nan
nan nan nan 32 nan nan 33 nan nan nan nan nan nan nan nan nan nan nan nan nan nan nan nan nan nan nan nan nan nan nan nan nan nan nan nan nan nan nan nan nan nan nan nan
nan nan nan nan nan nan nan nan nan nan nan nan nan nan nan nan nan nan nan nan nan nan nan nan nan nan nan nan nan nan nan nan nan nan nan nan nan nan nan nan nan nan nan
nan nan nan nan nan nan nan 28 nan nan nan nan nan nan nan nan nan nan nan nan nan nan nan nan nan nan nan nan nan nan nan nan nan nan nan nan nan nan nan nan nan nan nan
nan nan nan 25 nan nan nan 25 nan nan nan nan nan nan nan nan nan nan nan nan nan nan nan nan nan nan nan nan nan nan nan nan nan nan nan nan nan nan nan nan nan nan nan
nan nan nan nan nan nan nan nan nan nan nan nan nan nan nan nan nan nan nan nan nan nan nan nan nan nan nan nan nan nan nan nan nan nan nan nan nan nan nan nan nan nan nan
Wind_Direction
346 343 331 331 320 335 325 321 322 338 nan nan 342 335 324 321 322 322 nan nan nan nan nan nan nan nan nan nan nan nan nan nan nan nan nan nan nan nan nan nan nan nan nan
337 337 341 334 323 334 332 334 335 331 nan nan 335 332 325 322 324 nan nan nan nan nan nan nan nan nan nan nan nan nan nan nan nan nan nan nan nan nan nan nan nan nan nan
338 346 344 337 340 321 335 337 337 335 337 335 334 329 326 325 nan nan nan nan nan nan nan nan nan nan nan nan nan nan nan nan nan nan nan nan nan nan nan nan nan nan nan
326 334 342 340 332 336 339 339 336 335 336 336 334 nan 328 329 nan nan nan nan nan nan nan nan nan nan nan nan nan nan nan nan nan nan nan nan nan nan nan nan nan nan nan
322 329 333 338 333 334 336 338 336 335 335 333 nan 329 328 nan nan nan nan nan nan nan nan nan nan nan nan nan nan nan nan nan nan nan nan nan nan nan nan nan nan nan nan
331 323 330 336 332 325 325 331 333 335 333 331 330 330 nan nan nan nan nan nan nan nan nan nan nan nan nan nan nan nan nan nan nan nan nan nan nan nan nan nan nan nan nan
325 324 323 324 326 323 321 325 328 331 329 nan 327 327 327 nan nan nan nan nan nan nan nan nan nan nan nan nan nan nan nan nan nan nan nan nan nan nan nan nan nan nan nan
314 310 312 320 323 323 323 326 327 325 324 325 326 326 322 320 nan nan nan nan nan nan nan nan nan nan nan nan nan nan nan nan nan nan nan nan nan nan nan nan nan nan nan
302 302 300 309 318 320 324 324 321 317 319 322 320 319 318 317 nan nan nan nan nan nan nan nan nan nan nan nan nan nan nan nan nan nan nan nan nan nan nan nan nan nan nan
296 297 301 304 309 319 319 316 314 316 317 314 312 314 nan 314 nan nan nan nan nan nan nan nan nan nan nan nan nan nan nan nan nan nan nan nan nan nan nan nan nan nan nan
286 290 294 299 311 315 312 310 314 314 311 311 311 310 311 nan nan nan nan nan nan nan nan nan nan nan nan nan nan nan nan nan nan nan nan nan nan nan nan nan nan nan nan
281 290 291 305 311 310 310 310 312 313 311 311 313 310 nan nan nan nan nan nan nan nan nan nan nan nan nan nan nan nan nan nan nan nan nan nan nan nan nan nan nan nan nan
291 292 310 308 306 308 311 309 310 310 308 315 314 313 314 nan nan nan nan nan nan nan nan nan nan nan nan nan nan nan nan nan nan nan nan nan nan nan nan nan nan nan 239
279 299 298 305 302 301 303 306 310 310 312 314 313 314 nan nan nan nan nan nan nan nan nan nan nan nan nan nan nan nan nan nan nan nan nan nan nan nan nan nan nan nan nan
284 287 293 303 304 301 295 296 303 300 305 307 nan 313 nan nan nan nan nan nan nan nan nan nan nan nan nan nan nan nan nan nan nan nan nan nan nan nan nan nan nan nan nan
280 285 290 298 309 305 301 296 nan 295 297 nan nan nan nan nan nan nan nan nan nan nan nan nan nan nan nan nan nan nan nan nan nan nan nan nan nan nan nan nan nan nan nan
285 283 288 296 309 310 305 nan 303 295 nan nan nan nan nan nan nan nan nan nan nan nan nan nan nan nan nan nan nan nan nan nan nan nan nan nan nan nan nan nan nan nan nan
282 283 nan nan nan nan nan nan nan nan nan nan nan nan nan nan nan nan nan nan nan nan nan nan nan nan nan nan nan nan nan nan nan nan nan nan nan nan nan nan nan nan nan
283 nan nan nan nan nan nan nan nan nan nan nan nan nan nan nan nan nan nan nan nan nan nan nan nan nan nan nan nan nan nan nan nan nan nan nan nan nan nan nan nan nan nan
nan nan nan nan nan nan nan nan nan nan nan nan nan nan nan nan nan nan nan nan nan nan nan nan nan nan nan nan nan nan nan nan nan nan nan nan nan nan nan nan nan nan nan
nan nan nan nan 302 302 304 nan nan nan nan nan nan nan nan nan nan nan nan nan nan nan nan nan nan nan nan nan nan nan nan nan nan nan nan nan nan nan nan nan nan nan nan
nan nan nan 300 nan nan 298 nan nan nan nan nan nan nan nan nan nan nan nan nan nan nan nan nan nan nan nan nan nan nan nan nan nan nan nan nan nan nan nan nan nan nan nan
nan nan nan nan nan nan nan nan nan nan nan nan nan nan nan nan nan nan nan nan nan nan nan nan nan nan nan nan nan nan nan nan nan nan nan nan nan nan nan nan nan nan nan
nan nan nan nan nan nan nan 294 nan nan nan nan nan nan nan nan nan nan nan nan nan nan nan nan nan nan nan nan nan nan nan nan nan nan nan nan nan nan nan nan nan nan nan
nan nan nan 284 nan nan nan 297 nan nan nan nan nan nan nan nan nan nan nan nan nan nan nan nan nan nan nan nan nan nan nan nan nan nan nan nan nan nan nan nan nan nan nan
nan nan nan nan nan nan nan nan nan nan nan nan nan nan nan nan nan nan nan nan nan nan nan nan nan nan nan nan nan nan nan nan nan nan nan nan nan nan nan nan nan nan nan